Time,TemperatureF,DewpointF,PressureIn,WindDirection,WindDirectionDegrees,WindSpeedMPH,WindSpeedGustMPH,Humidity,HourlyPrecipIn,Conditions,Clouds,dailyrainin,SoftwareType,DateUTC
2013-02-25 06:25:00,2.2,-2.5,30.37,NNW,338,0.0,0.0,80,0.00,,---,0.00,VWS V14.01,2013-02-25 13:25:00,
2013-02-25 06:40:00,2.2,-2.5,30.37,NNW,338,0.0,0.0,80,0.00,,---,0.00,VWS V14.01,2013-02-25 13:40:00,
2013-02-25 06:45:00,2.2,-2.5,30.37,NNW,338,0.0,0.0,80,0.00,,---,0.00,VWS V14.01,2013-02-25 13:45:00,
2013-02-25 06:50:00,1.8,-2.9,30.37,NNW,338,0.0,0.0,80,0.00,,---,0.00,VWS V14.01,2013-02-25 13:50:00,
2013-02-25 06:55:00,1.1,-3.9,30.37,NNW,338,0.0,1.0,79,0.00,,---,0.00,VWS V14.01,2013-02-25 13:55:00,
2013-02-25 07:00:00,0.9,-3.8,30.37,NNW,338,0.0,0.0,80,0.00,,---,0.00,VWS V14.01,2013-02-25 14:00:00,
2013-02-25 07:05:00,1.0,-3.7,30.37,NNW,338,0.0,0.0,80,0.00,,---,0.00,VWS V14.01,2013-02-25 14:05:00,
2013-02-25 07:06:00,1.0,-3.7,30.37,NNW,338,0.0,0.0,80,0.00,,---,0.00,VWS V14.01,2013-02-25 14:06:00,
2013-02-25 07:11:00,1.2,-3.5,30.37,NNW,338,0.0,0.0,80,0.00,,---,0.00,VWS V14.01,2013-02-25 14:11:00,
2013-02-25 07:16:00,1.4,-3.3,30.37,NNW,338,0.0,0.0,80,0.00,,---,0.00,VWS V14.01,2013-02-25 14:16:00,
2013-02-25 07:21:00,2.0,-2.7,30.38,NNW,338,0.0,0.0,80,0.00,,---,0.00,VWS V14.01,2013-02-25 14:21:00,
2013-02-25 07:26:00,2.9,-1.6,30.36,NNW,338,0.0,2.0,81,0.00,,---,0.00,VWS V14.01,2013-02-25 14:26:00,
2013-02-25 07:31:00,3.7,-0.8,30.36,NNW,338,0.0,0.0,81,0.00,,---,0.00,VWS V14.01,2013-02-25 14:31:00,
2013-02-25 07:36:00,4.4,-0.1,30.36,NNW,338,0.0,0.0,81,0.00,,---,0.00,VWS V14.01,2013-02-25 14:36:00,
2013-02-25 07:41:00,5.5,0.9,30.34,NNW,338,0.0,0.0,81,0.00,,---,0.00,VWS V14.01,2013-02-25 14:41:00,
2013-02-25 07:46:00,6.3,1.7,30.34,NNW,338,0.0,1.0,81,0.00,,---,0.00,VWS V14.01,2013-02-25 14:46:00,
2013-02-25 07:51:00,7.2,2.3,30.32,NNW,338,0.0,0.0,80,0.00,,---,0.00,VWS V14.01,2013-02-25 14:51:00,
2013-02-25 07:56:00,8.0,3.1,30.33,NNW,338,0.0,0.0,80,0.00,,---,0.00,VWS V14.01,2013-02-25 14:56:00,
2013-02-25 08:01:00,8.8,3.6,30.31,NNW,338,0.0,0.0,79,0.00,,---,0.00,VWS V14.01,2013-02-25 15:01:00,
2013-02-25 08:06:00,9.0,3.5,30.31,NNW,338,0.0,2.0,78,0.00,,---,0.00,VWS V14.01,2013-02-25 15:06:00,
2013-02-25 08:11:00,10.2,4.7,30.30,NNW,338,0.0,0.0,78,0.00,,---,0.00,VWS V14.01,2013-02-25 15:11:00,
2013-02-25 08:16:00,11.0,4.9,30.28,NNW,338,3.0,5.0,76,0.00,,---,0.00,VWS V14.01,2013-02-25 15:16:00,
2013-02-25 08:21:00,11.2,4.5,30.28,NNW,338,0.0,3.0,74,0.00,,---,0.00,VWS V14.01,2013-02-25 15:21:00,
2013-02-25 08:26:00,11.7,5.0,30.28,NNW,338,0.0,5.0,74,0.00,,---,0.00,VWS V14.01,2013-02-25 15:26:00,
2013-02-25 08:31:00,12.1,4.8,30.28,NNW,338,0.0,0.0,72,0.00,,---,0.00,VWS V14.01,2013-02-25 15:31:00,
2013-02-25 08:36:00,12.5,4.9,30.26,NNW,338,2.0,2.0,71,0.00,,---,0.00,VWS V14.01,2013-02-25 15:36:00,
2013-02-25 08:41:00,12.1,4.2,30.28,NNW,338,3.0,4.0,70,0.00,,---,0.00,VWS V14.01,2013-02-25 15:41:00,
2013-02-25 08:46:00,10.8,2.6,30.28,NNW,330,0.0,0.0,69,0.00,,---,0.00,VWS V14.01,2013-02-25 15:46:00,
2013-02-25 08:51:00,11.2,3.7,30.28,NNW,330,1.0,1.0,71,0.00,,---,0.00,VWS V14.01,2013-02-25 15:51:00,
2013-02-25 08:56:00,11.9,4.3,30.27,NNW,330,0.0,2.0,71,0.00,,---,0.00,VWS V14.01,2013-02-25 15:56:00,
2013-02-25 09:01:00,12.7,4.8,30.26,NNW,330,0.0,4.0,70,0.00,,---,0.00,VWS V14.01,2013-02-25 16:01:00,
2013-02-25 09:06:00,12.6,4.1,30.26,NNW,330,2.0,2.0,68,0.00,,---,0.00,VWS V14.01,2013-02-25 16:06:00,
2013-02-25 09:11:00,11.9,3.4,30.28,NW,321,1.0,4.0,68,0.00,,---,0.00,VWS V14.01,2013-02-25 16:11:00,
2013-02-25 09:16:00,11.9,4.0,30.28,NW,321,4.0,5.0,70,0.00,,---,0.00,VWS V14.01,2013-02-25 16:16:00,
2013-02-25 09:21:00,12.0,4.1,30.28,NW,321,5.0,6.0,70,0.00,,---,0.00,VWS V14.01,2013-02-25 16:21:00,
2013-02-25 09:26:00,12.1,3.9,30.28,NW,321,0.0,1.0,69,0.00,,---,0.00,VWS V14.01,2013-02-25 16:26:00,
2013-02-25 09:31:00,12.6,4.7,30.26,NW,321,0.0,0.0,70,0.00,,---,0.00,VWS V14.01,2013-02-25 16:31:00,
2013-02-25 09:36:00,13.2,4.9,30.26,NW,321,0.0,0.0,69,0.00,,---,0.00,VWS V14.01,2013-02-25 16:36:00,
2013-02-25 09:41:00,13.4,5.1,30.26,NW,321,0.0,0.0,69,0.00,,---,0.00,VWS V14.01,2013-02-25 16:41:00,
2013-02-25 09:46:00,14.0,5.7,30.26,NW,321,0.0,1.0,69,0.00,,---,0.00,VWS V14.01,2013-02-25 16:46:00,
2013-02-25 09:51:00,15.2,6.2,30.25,NW,321,2.0,5.0,67,0.00,,---,0.00,VWS V14.01,2013-02-25 16:51:00,
2013-02-25 09:56:00,15.5,6.2,30.25,NW,321,0.0,0.0,66,0.00,,---,0.00,VWS V14.01,2013-02-25 16:56:00,
2013-02-25 10:01:00,15.4,6.1,30.25,NW,321,4.0,4.0,66,0.00,,---,0.00,VWS V14.01,2013-02-25 17:01:00,
2013-02-25 10:06:00,15.2,5.6,30.26,NW,321,5.0,6.0,65,0.00,,---,0.00,VWS V14.01,2013-02-25 17:06:00,
2013-02-25 10:11:00,15.5,6.5,30.24,NW,321,2.0,4.0,67,0.00,,---,0.00,VWS V14.01,2013-02-25 17:11:00,
2013-02-25 10:16:00,15.9,6.2,30.24,NW,321,0.0,3.0,65,0.00,,---,0.00,VWS V14.01,2013-02-25 17:16:00,
2013-02-25 10:21:00,16.7,7.3,30.24,NW,321,1.0,1.0,66,0.00,,---,0.00,VWS V14.01,2013-02-25 17:21:00,
2013-02-25 10:26:00,17.6,7.8,30.24,NW,321,1.0,1.0,65,0.00,,---,0.00,VWS V14.01,2013-02-25 17:26:00,
2013-02-25 10:31:00,18.2,7.7,30.22,NW,321,0.0,0.0,63,0.00,,---,0.00,VWS V14.01,2013-02-25 17:31:00,
2013-02-25 10:36:00,18.8,7.6,30.22,NW,321,1.0,2.0,61,0.00,,---,0.00,VWS V14.01,2013-02-25 17:36:00,
2013-02-25 10:41:00,18.9,7.7,30.21,NW,321,4.0,5.0,61,0.00,,---,0.00,VWS V14.01,2013-02-25 17:41:00,
2013-02-25 10:46:00,19.3,8.4,30.21,NW,321,1.0,4.0,62,0.00,,---,0.00,VWS V14.01,2013-02-25 17:46:00,
2013-02-25 10:51:00,19.8,8.5,30.19,NW,321,2.0,2.0,61,0.00,,---,0.00,VWS V14.01,2013-02-25 17:51:00,
2013-02-25 10:56:00,20.3,8.3,30.19,NW,321,1.0,1.0,59,0.00,,---,0.00,VWS V14.01,2013-02-25 17:56:00,
2013-02-25 11:02:00,20.5,8.5,30.19,NW,321,1.0,2.0,59,0.00,,---,0.00,VWS V14.01,2013-02-25 18:02:00,
2013-02-25 11:07:00,21.2,8.4,30.20,NW,321,1.0,4.0,57,0.00,,---,0.00,VWS V14.01,2013-02-25 18:07:00,
2013-02-25 11:12:00,21.6,9.1,30.18,NW,321,0.0,2.0,58,0.00,,---,0.00,VWS V14.01,2013-02-25 18:12:00,
2013-02-25 11:17:00,22.5,9.6,30.18,NW,321,0.0,2.0,57,0.00,,---,0.00,VWS V14.01,2013-02-25 18:17:00,
2013-02-25 11:22:00,23.5,9.3,30.18,NW,321,3.0,6.0,54,0.00,,---,0.00,VWS V14.01,2013-02-25 18:22:00,
2013-02-25 11:27:00,23.9,10.1,30.16,NW,321,0.0,5.0,55,0.00,,---,0.00,VWS V14.01,2013-02-25 18:27:00,
2013-02-25 11:32:00,24.1,9.9,30.16,NW,321,2.0,6.0,54,0.00,,---,0.00,VWS V14.01,2013-02-25 18:32:00,
2013-02-25 11:37:00,25.1,10.8,30.15,NW,321,1.0,4.0,54,0.00,,---,0.00,VWS V14.01,2013-02-25 18:37:00,
2013-02-25 11:42:00,26.0,11.2,30.13,NW,321,0.0,6.0,53,0.00,,---,0.00,VWS V14.01,2013-02-25 18:42:00,
2013-02-25 11:47:00,26.3,10.6,30.13,NW,321,5.0,6.0,51,0.00,,---,0.00,VWS V14.01,2013-02-25 18:47:00,
2013-02-25 11:52:00,26.3,11.9,30.12,NW,321,0.0,1.0,54,0.00,,---,0.00,VWS V14.01,2013-02-25 18:52:00,
2013-02-25 11:57:00,27.1,11.8,30.12,NW,321,6.0,6.0,52,0.00,,---,0.00,VWS V14.01,2013-02-25 18:57:00,
2013-02-25 12:02:00,26.8,10.7,30.12,NW,321,4.0,5.0,50,0.00,,---,0.00,VWS V14.01,2013-02-25 19:02:00,
2013-02-25 12:07:00,26.2,10.6,30.11,NW,321,1.0,8.0,51,0.00,,---,0.00,VWS V14.01,2013-02-25 19:07:00,
2013-02-25 12:12:00,25.7,10.1,30.11,NW,321,6.0,9.0,51,0.00,,---,0.00,VWS V14.01,2013-02-25 19:12:00,
2013-02-25 12:17:00,25.6,9.6,30.11,NW,321,4.0,8.0,50,0.00,,---,0.00,VWS V14.01,2013-02-25 19:17:00,
2013-02-25 12:22:00,25.8,9.3,30.11,NW,319,4.0,8.0,49,0.00,,---,0.00,VWS V14.01,2013-02-25 19:22:00,
2013-02-25 12:27:00,26.1,10.0,30.11,NW,319,1.0,3.0,50,0.00,,---,0.00,VWS V14.01,2013-02-25 19:27:00,
2013-02-25 12:32:00,27.2,10.1,30.10,NW,319,1.0,5.0,48,0.00,,---,0.00,VWS V14.01,2013-02-25 19:32:00,
2013-02-25 12:37:00,27.7,9.6,30.08,NW,319,2.0,5.0,46,0.00,,---,0.00,VWS V14.01,2013-02-25 19:37:00,
2013-02-25 12:42:00,28.2,10.1,30.08,NW,319,4.0,6.0,46,0.00,,---,0.00,VWS V14.01,2013-02-25 19:42:00,
2013-02-25 12:47:00,28.3,9.7,30.07,NW,319,0.0,5.0,45,0.00,,---,0.00,VWS V14.01,2013-02-25 19:47:00,
2013-02-25 12:52:00,29.2,10.0,30.07,NW,319,0.0,5.0,44,0.00,,---,0.00,VWS V14.01,2013-02-25 19:52:00,
2013-02-25 12:57:00,29.6,9.9,30.05,NW,313,6.0,10.0,43,0.00,,---,0.00,VWS V14.01,2013-02-25 19:57:00,
2013-02-25 13:02:00,28.8,9.6,30.06,NW,313,6.0,6.0,44,0.00,,---,0.00,VWS V14.01,2013-02-25 20:02:00,
2013-02-25 13:07:00,29.2,9.5,30.04,NW,313,6.0,8.0,43,0.00,,---,0.00,VWS V14.01,2013-02-25 20:07:00,
2013-02-25 13:12:00,29.1,8.4,30.04,NW,313,7.0,8.0,41,0.00,,---,0.00,VWS V14.01,2013-02-25 20:12:00,
2013-02-25 13:17:00,28.6,8.9,30.04,NW,313,5.0,7.0,43,0.00,,---,0.00,VWS V14.01,2013-02-25 20:17:00,
2013-02-25 13:22:00,28.9,8.7,30.04,NW,313,5.0,7.0,42,0.00,,---,0.00,VWS V14.01,2013-02-25 20:22:00,
2013-02-25 13:27:00,29.4,8.1,30.04,NW,313,2.0,6.0,40,0.00,,---,0.00,VWS V14.01,2013-02-25 20:27:00,
2013-02-25 13:32:00,30.0,9.2,30.03,NW,313,4.0,5.0,41,0.00,,---,0.00,VWS V14.01,2013-02-25 20:32:00,
2013-02-25 13:38:00,30.0,9.2,30.03,NW,313,5.0,5.0,41,0.00,,---,0.00,VWS V14.01,2013-02-25 20:38:00,
2013-02-25 13:43:00,30.8,10.4,30.01,NW,313,0.0,1.0,42,0.00,,---,0.00,VWS V14.01,2013-02-25 20:43:00,
2013-02-25 13:48:00,31.1,8.5,30.01,NW,313,5.0,8.0,38,0.00,,---,0.00,VWS V14.01,2013-02-25 20:48:00,
2013-02-25 13:53:00,31.0,8.4,30.01,NW,313,4.0,6.0,38,0.00,,---,0.00,VWS V14.01,2013-02-25 20:53:00,
2013-02-25 13:58:00,30.3,8.9,30.02,NW,313,0.0,7.0,40,0.00,,---,0.00,VWS V14.01,2013-02-25 20:58:00,
2013-02-25 14:03:00,30.6,10.2,30.00,NW,313,2.0,6.0,42,0.00,,---,0.00,VWS V14.01,2013-02-25 21:03:00,
2013-02-25 14:08:00,31.3,9.2,30.04,NW,313,0.0,4.0,39,0.00,,---,0.00,VWS V14.01,2013-02-25 21:08:00,
2013-02-25 14:13:00,31.7,9.0,30.03,NW,313,5.0,8.0,38,0.00,,---,0.00,VWS V14.01,2013-02-25 21:13:00,
2013-02-25 14:18:00,31.0,7.8,30.03,NW,313,1.0,5.0,37,0.00,,---,0.00,VWS V14.01,2013-02-25 21:18:00,
2013-02-25 14:23:00,31.1,7.9,30.03,NW,309,5.0,10.0,37,0.00,,---,0.00,VWS V14.01,2013-02-25 21:23:00,
2013-02-25 14:28:00,31.2,8.0,30.03,NW,309,5.0,7.0,37,0.00,,---,0.00,VWS V14.01,2013-02-25 21:28:00,
2013-02-25 14:33:00,31.6,8.9,30.03,NW,309,4.0,6.0,38,0.00,,---,0.00,VWS V14.01,2013-02-25 21:33:00,
2013-02-25 14:38:00,32.2,8.9,30.03,NW,309,1.0,5.0,37,0.00,,---,0.00,VWS V14.01,2013-02-25 21:38:00,
2013-02-25 14:43:00,32.3,8.4,30.03,NW,309,0.0,7.0,36,0.00,,---,0.00,VWS V14.01,2013-02-25 21:43:00,
2013-02-25 14:48:00,32.8,9.4,30.01,NW,309,2.0,3.0,37,0.00,,---,0.00,VWS V14.01,2013-02-25 21:48:00,
2013-02-25 14:53:00,33.5,10.0,30.01,NW,309,0.0,4.0,37,0.00,,---,0.00,VWS V14.01,2013-02-25 21:53:00,
2013-02-25 14:58:00,33.8,10.3,30.01,NW,309,1.0,5.0,37,0.00,,---,0.00,VWS V14.01,2013-02-25 21:58:00,
2013-02-25 15:03:00,34.4,10.2,30.01,NW,309,2.0,2.0,36,0.00,,---,0.00,VWS V14.01,2013-02-25 22:03:00,
2013-02-25 15:08:00,34.4,10.2,30.06,NW,309,0.0,2.0,36,0.00,,---,0.00,VWS V14.01,2013-02-25 22:08:00,
2013-02-25 15:13:00,34.4,11.4,30.06,NW,309,0.0,3.0,38,0.00,,---,0.00,VWS V14.01,2013-02-25 22:13:00,
2013-02-25 15:18:00,34.4,10.8,30.06,NW,309,1.0,2.0,37,0.00,,---,0.00,VWS V14.01,2013-02-25 22:18:00,
2013-02-25 15:23:00,34.1,10.0,30.06,NW,309,4.0,6.0,36,0.00,,---,0.00,VWS V14.01,2013-02-25 22:23:00,
2013-02-25 15:28:00,33.6,9.5,30.06,NW,309,0.0,6.0,36,0.00,,---,0.00,VWS V14.01,2013-02-25 22:28:00,
2013-02-25 15:33:00,33.7,10.2,30.06,NW,309,5.0,6.0,37,0.00,,---,0.00,VWS V14.01,2013-02-25 22:33:00,
2013-02-25 15:38:00,33.4,9.9,30.05,NW,309,0.0,6.0,37,0.00,,---,0.00,VWS V14.01,2013-02-25 22:38:00,
2013-02-25 15:43:00,33.5,10.6,30.05,NW,309,0.0,6.0,38,0.00,,---,0.00,VWS V14.01,2013-02-25 22:43:00,
2013-02-25 15:48:00,33.7,10.8,30.05,NW,309,0.0,2.0,38,0.00,,---,0.00,VWS V14.01,2013-02-25 22:48:00,
2013-02-25 15:53:00,33.9,11.0,30.05,NW,309,1.0,4.0,38,0.00,,---,0.00,VWS V14.01,2013-02-25 22:53:00,
2013-02-25 15:58:00,34.3,10.8,30.05,NW,309,1.0,4.0,37,0.00,,---,0.00,VWS V14.01,2013-02-25 22:58:00,
2013-02-25 16:03:00,34.7,12.3,30.03,NW,309,0.0,2.0,39,0.00,,---,0.00,VWS V14.01,2013-02-25 23:03:00,
2013-02-25 16:08:00,34.7,12.3,30.04,NW,309,0.0,1.0,39,0.00,,---,0.00,VWS V14.01,2013-02-25 23:08:00,
2013-02-25 16:13:00,34.7,12.3,30.05,NW,309,0.0,5.0,39,0.00,,---,0.00,VWS V14.01,2013-02-25 23:13:00,
2013-02-25 16:19:00,34.3,11.4,30.07,NW,309,3.0,4.0,38,0.00,,---,0.00,VWS V14.01,2013-02-25 23:19:00,
2013-02-25 16:24:00,33.9,11.0,30.06,NW,309,0.0,5.0,38,0.00,,---,0.00,VWS V14.01,2013-02-25 23:24:00,
2013-02-25 16:29:00,33.7,10.8,30.06,NW,309,0.0,5.0,38,0.00,,---,0.00,VWS V14.01,2013-02-25 23:29:00,
2013-02-25 16:34:00,33.4,10.5,30.06,NW,309,0.0,2.0,38,0.00,,---,0.00,VWS V14.01,2013-02-25 23:34:00,
2013-02-25 16:39:00,33.0,11.3,30.06,NW,309,0.0,1.0,40,0.00,,---,0.00,VWS V14.01,2013-02-25 23:39:00,
2013-02-25 17:10:00,30.3,10.5,30.12,NW,315,0.0,1.0,43,0.00,,---,0.00,VWS V14.01,2013-02-26 00:10:00,
2013-02-25 17:23:00,29.2,9.5,30.11,NW,309,0.0,0.0,43,0.00,,---,0.00,VWS V14.01,2013-02-26 00:23:00,
2013-02-25 17:28:00,28.3,8.2,30.13,NW,309,0.0,1.0,42,0.00,,---,0.00,VWS V14.01,2013-02-26 00:28:00,
2013-02-25 17:33:00,27.2,7.2,30.14,NW,309,0.0,0.0,42,0.00,,---,0.00,VWS V14.01,2013-02-26 00:33:00,
2013-02-25 17:38:00,26.8,6.8,30.14,NW,309,0.0,0.0,42,0.00,,---,0.00,VWS V14.01,2013-02-26 00:38:00,
2013-02-25 17:43:00,26.2,6.2,30.16,NW,309,0.0,1.0,42,0.00,,---,0.00,VWS V14.01,2013-02-26 00:43:00,
2013-02-25 17:48:00,25.4,5.5,30.15,NW,309,0.0,1.0,42,0.00,,---,0.00,VWS V14.01,2013-02-26 00:48:00,
2013-02-25 17:53:00,24.7,5.4,30.15,NW,309,0.0,2.0,43,0.00,,---,0.00,VWS V14.01,2013-02-26 00:53:00,
2013-02-25 17:58:00,24.0,5.3,30.17,NW,309,0.0,0.0,44,0.00,,---,0.00,VWS V14.01,2013-02-26 00:58:00,
2013-02-25 18:03:00,23.4,4.7,30.17,NW,309,0.0,2.0,44,0.00,,---,0.00,VWS V14.01,2013-02-26 01:03:00,
2013-02-25 18:08:00,23.0,4.8,30.18,NW,309,0.0,0.0,45,0.00,,---,0.00,VWS V14.01,2013-02-26 01:08:00,
2013-02-25 18:13:00,22.9,4.8,30.18,NW,309,0.0,2.0,45,0.00,,---,0.00,VWS V14.01,2013-02-26 01:13:00,
2013-02-25 18:18:00,22.9,4.8,30.19,NW,309,0.0,0.0,45,0.00,,---,0.00,VWS V14.01,2013-02-26 01:18:00,
2013-02-25 18:23:00,22.9,4.8,30.19,NW,309,2.0,2.0,45,0.00,,---,0.00,VWS V14.01,2013-02-26 01:23:00,
2013-02-25 18:28:00,22.2,5.5,30.21,NW,309,0.0,2.0,48,0.00,,---,0.00,VWS V14.01,2013-02-26 01:28:00,
2013-02-25 18:33:00,21.3,5.6,30.21,NW,309,0.0,0.0,50,0.00,,---,0.00,VWS V14.01,2013-02-26 01:33:00,
2013-02-25 18:38:00,20.3,5.5,30.23,NW,309,0.0,1.0,52,0.00,,---,0.00,VWS V14.01,2013-02-26 01:38:00,
2013-02-25 18:43:00,18.1,4.3,30.25,NW,309,0.0,2.0,54,0.00,,---,0.00,VWS V14.01,2013-02-26 01:43:00,
2013-02-25 18:48:00,16.1,2.8,30.28,NW,309,2.0,2.0,55,0.00,,---,0.00,VWS V14.01,2013-02-26 01:48:00,
2013-02-25 18:53:00,14.3,1.9,30.30,NW,309,1.0,4.0,57,0.00,,---,0.00,VWS V14.01,2013-02-26 01:53:00,
2013-02-25 18:58:00,13.7,2.8,30.29,NW,309,0.0,0.0,61,0.00,,---,0.00,VWS V14.01,2013-02-26 01:58:00,
2013-02-25 19:03:00,13.9,3.3,30.30,NW,309,0.0,0.0,62,0.00,,---,0.00,VWS V14.01,2013-02-26 02:03:00,
2013-02-25 19:08:00,14.2,3.9,30.21,NW,309,0.0,0.0,63,0.00,,---,0.00,VWS V14.01,2013-02-26 02:08:00,
2013-02-25 19:13:00,14.4,3.8,30.22,NW,309,0.0,0.0,62,0.00,,---,0.00,VWS V14.01,2013-02-26 02:13:00,
2013-02-25 19:18:00,14.7,4.1,30.20,NW,309,1.0,1.0,62,0.00,,---,0.00,VWS V14.01,2013-02-26 02:18:00,
2013-02-25 19:23:00,14.3,3.3,30.22,NW,309,0.0,1.0,61,0.00,,---,0.00,VWS V14.01,2013-02-26 02:23:00,
2013-02-25 19:29:00,13.8,2.8,30.23,NW,309,1.0,2.0,61,0.00,,---,0.00,VWS V14.01,2013-02-26 02:29:00,
2013-02-25 19:34:00,12.8,2.2,30.22,NW,309,1.0,4.0,62,0.00,,---,0.00,VWS V14.01,2013-02-26 02:34:00,
2013-02-25 19:39:00,12.5,2.3,30.22,NW,309,0.0,2.0,63,0.00,,---,0.00,VWS V14.01,2013-02-26 02:39:00,
2013-02-25 19:44:00,12.3,2.5,30.24,NW,309,0.0,0.0,64,0.00,,---,0.00,VWS V14.01,2013-02-26 02:44:00,
2013-02-25 19:49:00,12.3,2.5,30.24,NW,309,0.0,1.0,64,0.00,,---,0.00,VWS V14.01,2013-02-26 02:49:00,
2013-02-25 19:54:00,12.5,2.7,30.22,NW,309,0.0,1.0,64,0.00,,---,0.00,VWS V14.01,2013-02-26 02:54:00,